User: anonymous   Login
Location: Unspecified
(0.0000°N, 0.0000°E)
Time: 05:37:04
(UTC+02:00)
Language:

ITAMSAT 1 - Orbit

View from above orbital plane
View from above orbital plane
View from above satellite
View from above satellite

Ground track
Ground track

The orbit data is extracted from the following two-line orbital elements,

1 22826U 93061D   18112.90546101  .00000024  00000-0  26746-4 0  9993
2 22826  98.8521  88.0785 0009693 132.7430 227.4569 14.30359024281858
Epoch (UTC): 22 April 2018 21:43:51
Eccentricity: 0.0009693
inclination: 98.8521°
perigee height: 783 km
apogee height: 797 km
right ascension of ascending node: 88.0785°
argument of perigee: 132.7430°
revolutions per day: 14.30359024
mean anomaly at epoch: 227.4569°
orbit number at epoch: 28185

The dashed part of the orbit path shows where the satellite is in the earth's shadow,  

DLR